Time,TemperatureF,DewpointF,PressureIn,WindDirection,WindDirectionDegrees,WindSpeedMPH,WindSpeedGustMPH,Humidity,HourlyPrecipIn,Conditions,Clouds,dailyrainin,SoftwareType,DateUTC
2013-02-25 00:01:00,28.0,22.0,30.10,ESE,120,0.0,2.0,77,0.00,,,0.01,,2013-02-25 05:01:00,
2013-02-25 00:11:00,28.0,22.0,30.10,ESE,120,0.0,2.0,77,0.00,,,0.01,,2013-02-25 05:11:00,
2013-02-25 00:22:00,28.0,22.0,30.11,ESE,120,0.0,0.0,78,0.00,,,0.01,,2013-02-25 05:22:00,
2013-02-25 00:32:00,27.0,22.0,30.11,ESE,120,0.0,1.0,80,0.00,,,0.01,,2013-02-25 05:32:00,
2013-02-25 00:42:00,27.0,22.0,30.11,ESE,120,0.0,1.0,80,0.00,,,0.01,,2013-02-25 05:42:00,
2013-02-25 00:52:00,28.0,22.0,30.11,ESE,121,0.0,1.0,78,0.00,,,0.01,,2013-02-25 05:52:00,
2013-02-25 01:02:00,28.0,22.0,30.11,ESE,115,0.0,2.0,79,0.00,,,0.01,,2013-02-25 06:02:00,
2013-02-25 01:11:00,28.0,22.0,30.11,ESE,115,0.0,2.0,79,0.00,,,0.01,,2013-02-25 06:11:00,
2013-02-25 01:21:00,27.0,22.0,30.11,ESE,113,2.0,3.0,80,0.00,,,0.01,,2013-02-25 06:21:00,
2013-02-25 01:32:00,27.0,21.0,30.12,ESE,109,0.0,3.0,79,0.00,,,0.01,,2013-02-25 06:32:00,
2013-02-25 01:42:00,27.0,21.0,30.12,ESE,109,0.0,3.0,79,0.00,,,0.01,,2013-02-25 06:42:00,
2013-02-25 01:51:00,27.0,21.0,30.12,ESE,109,0.0,3.0,79,0.00,,,0.01,,2013-02-25 06:51:00,
2013-02-25 02:01:00,26.0,21.0,30.12,ESE,114,0.0,1.0,82,0.00,,,0.01,,2013-02-25 07:01:00,
2013-02-25 02:11:00,26.0,21.0,30.13,ESE,114,0.0,2.0,82,0.00,,,0.01,,2013-02-25 07:11:00,
2013-02-25 02:21:00,26.0,21.0,30.13,ESE,114,0.0,2.0,82,0.00,,,0.01,,2013-02-25 07:21:00,
2013-02-25 02:32:00,25.0,20.0,30.14,ESE,114,0.0,1.0,82,0.00,,,0.01,,2013-02-25 07:32:00,
2013-02-25 02:42:00,25.0,20.0,30.14,ESE,114,0.0,1.0,82,0.00,,,0.01,,2013-02-25 07:42:00,
2013-02-25 02:51:00,24.0,20.0,30.14,ESE,115,1.0,2.0,86,0.00,,,0.01,,2013-02-25 07:51:00,
2013-02-25 03:01:00,25.0,21.0,30.13,ESE,115,0.0,1.0,86,0.00,,,0.01,,2013-02-25 08:01:00,
2013-02-25 03:11:00,25.0,21.0,30.13,ESE,115,0.0,1.0,86,0.00,,,0.01,,2013-02-25 08:11:00,
2013-02-25 03:21:00,25.0,21.0,30.13,ESE,115,0.0,1.0,86,0.00,,,0.01,,2013-02-25 08:21:00,
2013-02-25 03:32:00,24.0,20.0,30.14,ENE,71,1.0,4.0,86,0.00,,,0.01,,2013-02-25 08:32:00,
2013-02-25 03:42:00,24.0,20.0,30.14,ENE,71,1.0,4.0,86,0.00,,,0.01,,2013-02-25 08:42:00,
2013-02-25 03:52:00,24.0,20.0,30.14,ESE,115,0.0,3.0,86,0.00,,,0.01,,2013-02-25 08:52:00,
2013-02-25 04:02:00,23.0,19.0,30.15,ESE,115,0.0,0.0,86,0.00,,,0.01,,2013-02-25 09:02:00,
2013-02-25 04:12:00,23.0,19.0,30.15,ESE,115,0.0,0.0,86,0.00,,,0.01,,2013-02-25 09:12:00,
2013-02-25 04:21:00,24.0,20.0,30.14,ESE,110,0.0,2.0,86,0.00,,,0.01,,2013-02-25 09:21:00,
2013-02-25 04:32:00,23.0,20.0,30.14,ESE,110,0.0,1.0,88,0.00,,,0.01,,2013-02-25 09:32:00,
2013-02-25 04:42:00,23.0,20.0,30.14,ESE,110,0.0,1.0,88,0.00,,,0.01,,2013-02-25 09:42:00,
2013-02-25 04:52:00,24.0,20.0,30.14,ESE,122,1.0,3.0,86,0.00,,,0.01,,2013-02-25 09:52:00,
2013-02-25 05:01:00,24.0,21.0,30.14,ESE,122,0.0,1.0,87,0.00,,,0.01,,2013-02-25 10:01:00,
2013-02-25 05:11:00,24.0,21.0,30.14,ESE,122,0.0,1.0,87,0.00,,,0.01,,2013-02-25 10:11:00,
2013-02-25 05:21:00,24.0,21.0,30.14,SE,127,0.0,2.0,88,0.00,,,0.01,,2013-02-25 10:21:00,
2013-02-25 05:32:00,24.0,20.0,30.15,ESE,115,0.0,1.0,86,0.00,,,0.01,,2013-02-25 10:32:00,
2013-02-25 05:42:00,24.0,20.0,30.15,ESE,115,0.0,1.0,86,0.00,,,0.01,,2013-02-25 10:42:00,
2013-02-25 05:52:00,23.0,19.0,30.15,ESE,107,0.0,1.0,86,0.00,,,0.01,,2013-02-25 10:52:00,
2013-02-25 06:01:00,22.0,19.0,30.15,ESE,110,0.0,0.0,88,0.00,,,0.01,,2013-02-25 11:01:00,
2013-02-25 06:11:00,22.0,19.0,30.15,ESE,110,0.0,0.0,88,0.00,,,0.01,,2013-02-25 11:11:00,
2013-02-25 06:22:00,22.0,20.0,30.15,ESE,121,1.0,3.0,90,0.00,,,0.01,,2013-02-25 11:22:00,
2013-02-25 06:32:00,22.0,19.0,30.16,ENE,59,1.0,2.0,89,0.00,,,0.01,,2013-02-25 11:32:00,
2013-02-25 06:42:00,22.0,19.0,30.16,ENE,59,1.0,2.0,89,0.00,,,0.01,,2013-02-25 11:42:00,
2013-02-25 06:52:00,22.0,19.0,30.16,ENE,65,1.0,2.0,89,0.00,,,0.01,,2013-02-25 11:52:00,
2013-02-25 07:02:00,22.0,20.0,30.16,ESE,102,0.0,1.0,90,0.00,,,0.01,,2013-02-25 12:02:00,
2013-02-25 07:11:00,22.0,20.0,30.16,ESE,102,0.0,1.0,90,0.00,,,0.01,,2013-02-25 12:11:00,
2013-02-25 07:22:00,21.0,19.0,30.17,ESE,102,0.0,0.0,90,0.00,,,0.01,,2013-02-25 12:22:00,
2013-02-25 07:32:00,21.0,19.0,30.17,East,101,0.0,1.0,91,0.00,,,0.01,,2013-02-25 12:32:00,
2013-02-25 07:42:00,21.0,19.0,30.17,East,101,0.0,1.0,91,0.00,,,0.01,,2013-02-25 12:42:00,
2013-02-25 07:54:00,22.0,20.0,30.18,ESE,102,0.0,0.0,91,0.00,,,0.01,,2013-02-25 12:54:00,
2013-02-25 08:02:00,22.0,20.0,30.18,ENE,65,0.0,2.0,91,0.00,,,0.01,,2013-02-25 13:02:00,
2013-02-25 08:12:00,22.0,20.0,30.18,ENE,65,0.0,2.0,91,0.00,,,0.01,,2013-02-25 13:12:00,
2013-02-25 08:23:00,22.0,20.0,30.21,East,81,0.0,2.0,91,0.00,,,0.01,,2013-02-25 13:23:00,
2013-02-25 08:32:00,23.0,21.0,30.21,ENE,78,0.0,1.0,91,0.00,,,0.01,,2013-02-25 13:32:00,
2013-02-25 08:42:00,23.0,21.0,30.21,ENE,78,0.0,1.0,91,0.00,,,0.01,,2013-02-25 13:42:00,
2013-02-25 08:52:00,24.0,22.0,30.21,ESE,113,0.0,2.0,90,0.00,,,0.01,,2013-02-25 13:52:00,
2013-02-25 09:03:00,25.0,22.0,30.22,ESE,113,0.0,0.0,88,0.00,,,0.01,,2013-02-25 14:03:00,
2013-02-25 09:18:00,25.0,22.0,30.22,ESE,113,0.0,0.0,88,0.00,,,0.01,,2013-02-25 14:18:00,
2013-02-25 09:32:00,27.0,24.0,30.22,ENE,71,0.0,2.0,87,0.00,,,0.01,,2013-02-25 14:32:00,
2013-02-25 09:42:00,27.0,24.0,30.22,ENE,71,0.0,2.0,87,0.00,,,0.01,,2013-02-25 14:42:00,
2013-02-25 09:52:00,29.0,25.0,30.22,ENE,71,0.0,0.0,85,0.00,,,0.01,,2013-02-25 14:52:00,
2013-02-25 10:03:00,31.0,26.0,30.22,East,86,0.0,1.0,81,0.00,,,0.01,,2013-02-25 15:03:00,
2013-02-25 10:11:00,31.0,26.0,30.22,East,86,0.0,1.0,81,0.00,,,0.01,,2013-02-25 15:11:00,
2013-02-25 10:22:00,32.0,26.0,30.22,SE,124,0.0,3.0,78,0.00,,,0.01,,2013-02-25 15:22:00,
2013-02-25 10:32:00,34.0,27.0,30.22,SE,134,0.0,3.0,74,0.00,,,0.00,,2013-02-25 15:32:00,
2013-02-25 10:42:00,34.0,27.0,30.22,SE,134,0.0,3.0,74,0.00,,,0.00,,2013-02-25 15:42:00,
2013-02-25 10:52:00,34.0,25.0,30.22,WSW,257,1.0,4.0,69,0.00,,,0.00,,2013-02-25 15:52:00,
2013-02-25 11:02:00,35.0,25.0,30.22,WSW,253,2.0,6.0,67,0.00,,,0.00,,2013-02-25 16:02:00,
2013-02-25 11:12:00,35.0,25.0,30.22,WSW,253,2.0,6.0,67,0.00,,,0.00,,2013-02-25 16:12:00,
2013-02-25 11:22:00,35.0,24.0,30.22,SE,146,1.0,5.0,64,0.00,,,0.00,,2013-02-25 16:22:00,
2013-02-25 11:32:00,36.0,25.0,30.21,West,263,2.0,6.0,63,0.00,,,0.00,,2013-02-25 16:32:00,
2013-02-25 11:42:00,36.0,25.0,30.21,West,263,2.0,6.0,63,0.00,,,0.00,,2013-02-25 16:42:00,
2013-02-25 11:51:00,36.0,24.0,30.22,ENE,77,1.0,6.0,61,0.00,,,0.00,,2013-02-25 16:51:00,
2013-02-25 12:02:00,36.0,24.0,30.22,ENE,77,1.0,6.0,61,0.00,,,0.00,,2013-02-25 17:02:00,
2013-02-25 12:11:00,36.0,24.0,30.22,ENE,77,1.0,6.0,61,0.00,,,0.00,,2013-02-25 17:11:00,
2013-02-25 12:21:00,37.0,24.0,30.22,East,81,1.0,3.0,58,0.00,,,0.00,,2013-02-25 17:21:00,
2013-02-25 12:32:00,38.0,25.0,30.21,ENE,70,1.0,3.0,58,0.00,,,0.00,,2013-02-25 17:32:00,
2013-02-25 12:42:00,38.0,25.0,30.21,ENE,70,1.0,3.0,58,0.00,,,0.00,,2013-02-25 17:42:00,
2013-02-25 12:52:00,39.0,25.0,30.20,SSW,200,3.0,6.0,57,0.00,,,0.00,,2013-02-25 17:52:00,
2013-02-25 13:02:00,38.0,25.0,30.19,East,90,0.0,4.0,58,0.00,,,0.00,,2013-02-25 18:02:00,
2013-02-25 13:12:00,38.0,25.0,30.19,East,90,0.0,4.0,58,0.00,,,0.00,,2013-02-25 18:12:00,
2013-02-25 13:21:00,38.0,24.0,30.18,SSW,204,3.0,7.0,57,0.00,,,0.00,,2013-02-25 18:21:00,
2013-02-25 13:33:00,39.0,25.0,30.16,SW,219,4.0,6.0,56,0.00,,,0.00,,2013-02-25 18:33:00,
2013-02-25 13:42:00,39.0,25.0,30.16,SW,219,4.0,6.0,56,0.00,,,0.00,,2013-02-25 18:42:00,
2013-02-25 13:51:00,39.0,24.0,30.16,South,191,2.0,6.0,55,0.00,,,0.00,,2013-02-25 18:51:00,
2013-02-25 14:01:00,39.0,25.0,30.16,WSW,245,4.0,7.0,56,0.00,,,0.00,,2013-02-25 19:01:00,
2013-02-25 14:11:00,39.0,25.0,30.16,WSW,245,4.0,7.0,56,0.00,,,0.00,,2013-02-25 19:11:00,
2013-02-25 14:22:00,39.0,24.0,30.16,SE,146,1.0,7.0,54,0.00,,,0.00,,2013-02-25 19:22:00,
2013-02-25 14:32:00,39.0,24.0,30.16,SE,139,1.0,5.0,54,0.00,,,0.00,,2013-02-25 19:32:00,
2013-02-25 14:42:00,39.0,24.0,30.16,SE,139,1.0,5.0,54,0.00,,,0.00,,2013-02-25 19:42:00,
2013-02-25 14:52:00,40.0,25.0,30.15,South,181,2.0,4.0,54,0.00,,,0.00,,2013-02-25 19:52:00,
2013-02-25 15:01:00,39.0,25.0,30.15,West,269,4.0,6.0,56,0.00,,,0.00,,2013-02-25 20:01:00,
2013-02-25 15:11:00,39.0,25.0,30.15,West,269,4.0,6.0,56,0.00,,,0.00,,2013-02-25 20:11:00,
2013-02-25 15:21:00,40.0,26.0,30.15,SW,218,4.0,8.0,56,0.00,,,0.00,,2013-02-25 20:21:00,
2013-02-25 15:32:00,41.0,26.0,30.16,ENE,77,1.0,6.0,54,0.00,,,0.00,,2013-02-25 20:32:00,
2013-02-25 15:42:00,41.0,26.0,30.16,ENE,77,1.0,6.0,54,0.00,,,0.00,,2013-02-25 20:42:00,
2013-02-25 15:52:00,41.0,26.0,30.15,ENE,64,1.0,7.0,54,0.00,,,0.00,,2013-02-25 20:52:00,
2013-02-25 16:02:00,41.0,26.0,30.15,ENE,64,1.0,7.0,54,0.00,,,0.00,,2013-02-25 21:02:00,
2013-02-25 16:11:00,41.0,26.0,30.15,ENE,64,1.0,7.0,54,0.00,,,0.00,,2013-02-25 21:11:00,
2013-02-25 16:21:00,41.0,26.0,30.15,ENE,65,3.0,8.0,55,0.00,,,0.00,,2013-02-25 21:21:00,
2013-02-25 16:32:00,41.0,26.0,30.16,North,349,4.0,8.0,54,0.00,,,0.00,,2013-02-25 21:32:00,
2013-02-25 16:42:00,41.0,26.0,30.16,North,349,4.0,8.0,54,0.00,,,0.00,,2013-02-25 21:42:00,
2013-02-25 16:51:00,41.0,26.0,30.15,WSW,257,5.0,8.0,55,0.00,,,0.00,,2013-02-25 21:51:00,
2013-02-25 17:02:00,40.0,25.0,30.15,NW,312,4.0,8.0,55,0.00,,,0.00,,2013-02-25 22:02:00,
2013-02-25 17:11:00,40.0,25.0,30.15,NW,312,4.0,8.0,55,0.00,,,0.00,,2013-02-25 22:11:00,
2013-02-25 17:21:00,40.0,25.0,30.14,SE,125,4.0,6.0,55,0.00,,,0.00,,2013-02-25 22:21:00,
2013-02-25 17:32:00,40.0,25.0,30.13,NW,308,3.0,8.0,55,0.00,,,0.00,,2013-02-25 22:32:00,
2013-02-25 17:42:00,40.0,25.0,30.13,NW,308,3.0,8.0,55,0.00,,,0.00,,2013-02-25 22:42:00,
2013-02-25 17:52:00,40.0,26.0,30.14,WSW,242,2.0,6.0,56,0.00,,,0.00,,2013-02-25 22:52:00,
2013-02-25 18:01:00,39.0,25.0,30.15,West,281,3.0,7.0,56,0.00,,,0.00,,2013-02-25 23:01:00,
2013-02-25 18:11:00,39.0,25.0,30.15,West,281,3.0,7.0,56,0.00,,,0.00,,2013-02-25 23:11:00,
2013-02-25 18:22:00,38.0,24.0,30.16,SW,217,2.0,6.0,57,0.00,,,0.00,,2013-02-25 23:22:00,
2013-02-25 18:32:00,37.0,24.0,30.16,SSW,204,2.0,6.0,59,0.00,,,0.00,,2013-02-25 23:32:00,
2013-02-25 18:42:00,37.0,24.0,30.16,SSW,204,2.0,6.0,59,0.00,,,0.00,,2013-02-25 23:42:00,
2013-02-25 18:52:00,36.0,23.0,30.17,SSW,195,2.0,7.0,59,0.00,,,0.00,,2013-02-25 23:52:00,
2013-02-25 19:02:00,35.0,23.0,30.18,SSW,209,4.0,7.0,60,0.00,,,0.00,,2013-02-26 00:02:00,
2013-02-25 19:12:00,35.0,23.0,30.18,SSW,209,4.0,7.0,60,0.00,,,0.00,,2013-02-26 00:12:00,
2013-02-25 19:22:00,33.0,23.0,30.18,SSE,163,2.0,3.0,66,0.00,,,0.00,,2013-02-26 00:22:00,
2013-02-25 19:32:00,33.0,23.0,30.18,SSW,198,3.0,5.0,67,0.00,,,0.00,,2013-02-26 00:32:00,
2013-02-25 19:42:00,33.0,23.0,30.18,SSW,198,3.0,5.0,67,0.00,,,0.00,,2013-02-26 00:42:00,
2013-02-25 19:51:00,32.0,22.0,30.18,SSW,193,3.0,4.0,67,0.00,,,0.00,,2013-02-26 00:51:00,
2013-02-25 20:02:00,32.0,23.0,30.18,ESE,113,1.0,3.0,68,0.00,,,0.00,,2013-02-26 01:02:00,
2013-02-25 20:11:00,32.0,23.0,30.18,ESE,113,1.0,3.0,68,0.00,,,0.00,,2013-02-26 01:11:00,
2013-02-25 20:21:00,31.0,22.0,30.17,SSE,159,2.0,4.0,70,0.00,,,0.00,,2013-02-26 01:21:00,
2013-02-25 20:32:00,30.0,22.0,30.18,SSW,204,3.0,6.0,72,0.00,,,0.00,,2013-02-26 01:32:00,
2013-02-25 20:42:00,30.0,22.0,30.18,SSW,204,3.0,6.0,72,0.00,,,0.00,,2013-02-26 01:42:00,
2013-02-25 20:52:00,29.0,22.0,30.19,South,177,2.0,5.0,74,0.00,,,0.00,,2013-02-26 01:52:00,
2013-02-25 21:01:00,28.0,21.0,30.19,ESE,103,0.0,1.0,75,0.00,,,0.00,,2013-02-26 02:01:00,
2013-02-25 21:11:00,28.0,21.0,30.19,ESE,103,0.0,1.0,75,0.00,,,0.00,,2013-02-26 02:11:00,
2013-02-25 21:21:00,28.0,21.0,30.19,ESE,107,0.0,1.0,75,0.00,,,0.00,,2013-02-26 02:21:00,
2013-02-25 21:32:00,28.0,21.0,30.18,ESE,107,0.0,0.0,76,0.00,,,0.00,,2013-02-26 02:32:00,
2013-02-25 21:42:00,28.0,21.0,30.18,ESE,107,0.0,0.0,76,0.00,,,0.00,,2013-02-26 02:42:00,
2013-02-25 21:52:00,27.0,21.0,30.19,East,101,0.0,1.0,77,0.00,,,0.00,,2013-02-26 02:52:00,
2013-02-25 22:02:00,27.0,21.0,30.19,East,101,0.0,1.0,79,0.00,,,0.00,,2013-02-26 03:02:00,
2013-02-25 22:12:00,27.0,21.0,30.19,East,101,0.0,1.0,79,0.00,,,0.00,,2013-02-26 03:12:00,
2013-02-25 22:22:00,27.0,22.0,30.19,SE,131,1.0,4.0,82,0.00,,,0.00,,2013-02-26 03:22:00,
2013-02-25 22:32:00,29.0,23.0,30.19,ESE,115,0.0,2.0,79,0.00,,,0.00,,2013-02-26 03:32:00,
2013-02-25 22:42:00,29.0,23.0,30.19,ESE,115,0.0,2.0,79,0.00,,,0.00,,2013-02-26 03:42:00,
2013-02-25 22:52:00,30.0,23.0,30.21,ESE,114,0.0,1.0,74,0.00,,,0.00,,2013-02-26 03:52:00,
2013-02-25 23:02:00,31.0,23.0,30.21,East,101,0.0,1.0,71,0.00,,,0.00,,2013-02-26 04:02:00,
2013-02-25 23:11:00,31.0,23.0,30.21,East,101,0.0,1.0,71,0.00,,,0.00,,2013-02-26 04:11:00,
2013-02-25 23:22:00,33.0,22.0,30.21,SE,131,0.0,4.0,63,0.00,,,0.00,,2013-02-26 04:22:00,
2013-02-25 23:32:00,33.0,22.0,30.21,SE,131,0.0,4.0,63,0.00,,,0.00,,2013-02-26 04:32:00,
2013-02-25 23:42:00,33.0,22.0,30.21,SE,131,0.0,4.0,63,0.00,,,0.00,,2013-02-26 04:42:00,
2013-02-25 23:52:00,32.0,22.0,30.19,West,273,0.0,1.0,65,0.00,,,0.00,,2013-02-26 04:52:00,